Location: Vilnius
(54.6872°N, 25.2797°E)
Time: 07:02:05
(UTC+03:00)

ISS - Visible Passes

Search period start: 29 March 2020 00:00
Search period end: 08 April 2020 01:00
Orbit: 417 x 423 km, 51.6° (Epoch: 29 March)

Date Brightness Start Highest point End Pass type
(mag) Time Alt. Az. Time Alt. Az. Time Alt. Az.
29 Mar -3.1 21:10:12 10° W 21:13:25 43° SSW 21:15:14 22° SE visible
29 Mar -1.2 22:47:18 10° WSW 22:48:12 14° WSW 22:48:12 14° WSW visible
30 Mar -3.2 20:22:52 10° W 20:26:07 47° S 20:29:23 10° ESE visible
30 Mar -2.2 21:59:45 10° W 22:02:31 24° SSW 22:02:43 23° SSW visible
31 Mar -2.4 21:12:17 10° W 21:15:17 30° SSW 21:17:16 17° SSE visible
01 Apr -1.4 22:02:25 10° WSW 22:04:10 13° SW 22:04:47 13° SSW visible
02 Apr -1.6 21:14:36 10° WSW 21:16:59 18° SSW 21:19:21 10° SSE visible
